Regional Weather Roundup
Issued by NWS

Home | Current Version | Previous Version | Text Only | Print | Product List | Glossary On
Versions: 1 2 3 4 5 6 7 8 9 10 11 12 13 14 15 16 17 18 19 20 21 22 23 24 25 26 27 28 29 30 31 32 33 34 35 36 37 38 39 40 41 42 43 44 45 46 47 48 49 50
000
ASUS44 KFWD 272303
RWRTX
NORTH TEXAS HOURLY WEATHER ROUNDUP
NATIONAL WEATHER SERVICE FORT WORTH TX
600 PM CDT THU AUG 27 2015

NOTE: "FAIR" INDICATES FEW OR NO CLOUDS BELOW 12,000 FEET WITH NO
SIGNIFICANT WEATHER AND/OR OBSTRUCTIONS TO VISIBILITY.

TXZ118-119-280000-
DALLAS/FORT WORTH METROPLEX

CITY           SKY/WX    TMP DP  RH WIND       PRES   REMARKS
DFW AIRPORT    PTSUNNY   94  61  33 E15       29.98S HX  94
DALLAS LOVE    PTSUNNY   94  63  35 E12       29.99S HX  95
FTW MEACHAM    MOSUNNY   96  60  30 E7        29.98S HX  96
DAL-EXECUTIVE  MOSUNNY   92  60  34 SE10      30.00R HX  91
FTW-ALLIANCE   PTSUNNY   95  61  32 SE13      29.98F HX  95
FTW-NAS-JRB    PTSUNNY   95  59  30 E8        29.98F HX  94
FTW-SPINKS     MOSUNNY   95  61  31 SE8       30.01S HX  95
ARLINGTON      MOSUNNY   96  59  29 E12       29.98F HX  95
GRAND PRAIRIE  SUNNY     93  63  36 E9        30.00S HX  94
MESQUITE       SUNNY     91  59  33 E7        30.01S HX  90
LANCASTER      PTSUNNY   93  56  28 E9        30.01S HX  91
$$

TXZ091>094-102>105-117-120-121-131>134-280000-
NORTH CENTRAL TEXAS

CITY           SKY/WX    TMP DP  RH WIND       PRES   REMARKS
SHRMAN/DENISON MOSUNNY   94  64  37 SE8       30.01S HX  95
BOWIE          CLOUDY    92  60  33 SE3       29.99F HX  92
BRIDGEPORT     PTSUNNY   93  64  37 SE6       29.99F HX  94
DECATUR        PTSUNNY   92  59  32 SE10      30.00S HX  91
DENTON         MOSUNNY   93  64  38 SE15      29.98F HX  94
MCKINNEY       MOSUNNY   91  63  39 SE8       30.00F HX  92
ROCKWALL       PTSUNNY   91  61  37 E10       30.00S HX  90
TERRELL        PTSUNNY   89  58  34 SE8       30.02S
WAXAHACHIE     MOSUNNY   91  61  36 E7        30.01S HX  91
CLEBURNE         N/A     93  63  36 E12       30.02S HX  94
$$

TXZ083>090-098>101-113>116-127>130-139>142-154-155-280000-
WESTERN NORTH TEXAS

CITY           SKY/WX    TMP DP  RH WIND       PRES   REMARKS
WICHITA FALLS  PTSUNNY   95  66  38 SE16G24   29.96S HX  98
WF-KICKAPOO    SUNNY     97  61  30 SE12G18   29.97S HX  97
VERNON         SUNNY    101  42  13 SE13G18   29.94F HX  96
ABILENE        SUNNY     96  58  27 S7        30.00F HX  95
ABILENE-DYESS  SUNNY     98  61  29 S8        29.98F HX  98
BRECKENRIDGE   SUNNY     96  57  27 SE9       29.98S HAZE    HX  95
MINERAL WELLS  MOSUNNY   94  64  37 SE5       29.97F HX  95
STEPHENVILLE   SUNNY     93  59  32 E3        30.04S HX  92
COMANCHE       SUNNY     94  63  35 NE6       30.01S HX  95
COLEMAN        SUNNY     95  62  32 E5        30.01S HX  96
BRADY          SUNNY     97  61  30 E7        30.01S HX  97
$$

TXZ143>147-156>162-174-175-280000-
CENTRAL TEXAS

CITY           SKY/WX    TMP DP  RH WIND       PRES   REMARKS
WACO           MOSUNNY   94  55  26 E9        29.98F HX  92
WACO-TSTC      SUNNY     93  54  26 E6        29.98F HX  91
HILLSBORO      PTSUNNY   93  55  28 E12       30.00S HX  91
CORSICANA      MOSUNNY   92  58  31 E7        30.02S HX  91
MEXIA          PTSUNNY   92  59  33 E12G18    29.99S HX  91
HEARNE         PTSUNNY   93  60  32 E6        29.99F HX  93
CAMERON        MOSUNNY   94  57  28 CALM      29.97F HX  93
TEMPLE         MOSUNNY   93  61  33 CALM      29.99F HX  93
KILLEEN        MOSUNNY   95  57  27 E9        29.98F HX  93
KILLEEN-SKYLRK MOSUNNY   93  57  29 E7        29.98F HX  92
FORT HOOD      MOSUNNY   95  58  28 E10       29.98S HX  93
GATESVILLE     MOSUNNY   97  63  32 CALM      30.00F HX  98
HAMILTON       SUNNY     96  56  26 CALM      30.01F HX  94
$$

TXZ095>097-106>112-122>126-135>138-148>153-164>167-280000-
EAST TEXAS

CITY           SKY/WX    TMP DP  RH WIND       PRES   REMARKS
PARIS          PTSUNNY   90  59  35 S7        30.02F
SULPHUR SPRNGS PTSUNNY   87  59  37 S5        30.04F
MOUNT PLEASANT PTSUNNY   86  61  43 CALM      30.03F
GILMER         PTSUNNY   84  63  47 CALM      30.03S
MINEOLA        CLOUDY    88  55  33 SE3       30.04S
TYLER          CLOUDY    86  64  47 N6        30.03S
LONGVIEW       PTSUNNY   86  66  51 E6        30.01F
MARSHALL       PTSUNNY   86  68  55 CALM      30.03F
ATHENS         PTSUNNY   88  61  40 E3        30.01S
PALESTINE      PTSUNNY   89  60  37 NE3       30.02F
JACKSONVILLE   PTSUNNY   86  58  38 NE5       30.05S
HENDERSON      CLOUDY    85  63  48 CALM      30.03F
CENTER         FAIR      87  64  44 N10       30.00F
NACOGDOCHES    PTSUNNY   88  63  42 NE7       30.00S
LUFKIN         PTSUNNY   89  61  38 NE6       29.99F
$$

SUPPLEMENTAL OBSERVATIONS (CENTRAL)

CITY           SKY/WX    TMP DP  RH WIND       PRES   REMARKS
$$

SUPPLEMENTAL OBSERVATIONS (WEST)

CITY           SKY/WX    TMP DP  RH WIND       PRES   REMARKS
$$

SUPPLEMENTAL OBSERVATIONS (EAST)

CITY           SKY/WX    TMP DP  RH WIND       PRES   REMARKS
$$

SUPPLEMENTAL OBSERVATIONS ARE A COLLECTION OF AUTOMATED INSTRUMENTS
THAT ARE MAINTAINED BY A VARIETY OF FEDERAL AND STATE AGENCIES.
CERTAIN ELEMENTS...SUCH AS HUMIDITY VALUES AND SUSTAINED WIND
SPEEDS...MAY BE APPROXIMATED.



USA.gov is the U.S. government's official web portal to all federal, state and local government web resources and services.